• Em Portugal
  • Lista de países
  • Para 7 dias
  • Temperatura da água
  • Mapas de satélite
  • Mapa do tempo
  • Widgets de tempo
  • user-avatar
    Iniciar Sessão

    Previsão horária em Gadivlya

    Hoje, 24 Setembro, Segunda-feira

    Tempo Temperatura Precipitação Vento Pressão Humidade
    00:00 +8°C° 0 mm 2 m/s 741 mmHg 91%
    01:00 +8°C° 0 mm 2 m/s 741 mmHg 92%
    02:00 +8°C° 0 mm 2 m/s 740 mmHg 94%
    03:00 +8°C° 0.8 mm 2 m/s 739 mmHg 95%
    04:00 +8°C° 0.8 mm 2 m/s 739 mmHg 96%
    05:00 +8°C° 0.8 mm 2 m/s 738 mmHg 96%
    06:00 +8°C° 2.1 mm 3 m/s 737 mmHg 96%
    07:00 +8°C° 2.1 mm 3 m/s 736 mmHg 96%
    08:00 +8°C° 0 mm 3 m/s 735 mmHg 95%
    09:00 +7°C° 2.6 mm 4 m/s 735 mmHg 95%
    10:00 +7°C° 2.6 mm 4 m/s 734 mmHg 95%
    11:00 +7°C° 2.6 mm 5 m/s 733 mmHg 95%
    12:00 +7°C° 1.7 mm 5 m/s 733 mmHg 94%
    13:00 +7°C° 1.7 mm 6 m/s 734 mmHg 92%
    14:00 +6°C° 1.7 mm 7 m/s 734 mmHg 91%
    15:00 +6°C° 0.2 mm 7 m/s 734 mmHg 89%
    16:00 +7°C° 0.2 mm 6 m/s 735 mmHg 87%
    17:00 +8°C° 0.2 mm 6 m/s 736 mmHg 85%
    18:00 +7°C° 0.1 mm 6 m/s 737 mmHg 87%
    19:00 +7°C° 0.1 mm 5 m/s 737 mmHg 89%
    20:00 +7°C° 0.1 mm 5 m/s 738 mmHg 91%
    21:00 +6°C° 0 mm 5 m/s 739 mmHg 90%
    22:00 +6°C° 0 mm 5 m/s 739 mmHg 90%
    23:00 +6°C° 0 mm 5 m/s 740 mmHg 90%

    Amanhã, 25 Setembro, Terça-feira

    Tempo Temperatura Precipitação Vento Pressão Humidade
    00:00 +5°C° 0 mm 5 m/s 740 mmHg 90%
    01:00 +5°C° 0 mm 5 m/s 741 mmHg 90%
    02:00 +3°C° 0 mm 5 m/s 742 mmHg 90%
    03:00 +3°C° 0 mm 5 m/s 742 mmHg 91%
    04:00 +3°C° 0 mm 5 m/s 743 mmHg 92%
    05:00 +2°C° 0 mm 5 m/s 743 mmHg 93%
    06:00 +3°C° 0 mm 5 m/s 744 mmHg 89%
    07:00 +3°C° 0 mm 6 m/s 745 mmHg 86%
    08:00 +4°C° 0 mm 6 m/s 745 mmHg 83%
    09:00 +5°C° 0 mm 6 m/s 746 mmHg 77%
    10:00 +6°C° 0 mm 7 m/s 747 mmHg 71%
    11:00 +8°C° 0 mm 7 m/s 747 mmHg 66%
    12:00 +8°C° 0.1 mm 7 m/s 748 mmHg 63%
    13:00 +8°C° 0.1 mm 7 m/s 748 mmHg 60%
    14:00 +8°C° 0.1 mm 7 m/s 749 mmHg 57%
    15:00 +8°C° 0.1 mm 6 m/s 749 mmHg 58%
    16:00 +7°C° 0.1 mm 5 m/s 750 mmHg 59%
    17:00 +7°C° 0.1 mm 5 m/s 750 mmHg 60%
    18:00 +6°C° 0 mm 4 m/s 751 mmHg 61%
    19:00 +5°C° 0 mm 4 m/s 752 mmHg 62%
    20:00 +4°C° 0 mm 4 m/s 753 mmHg 64%
    21:00 +3°C° 0 mm 4 m/s 753 mmHg 64%
    22:00 +3°C° 0 mm 4 m/s 754 mmHg 65%
    23:00 +2°C° 0 mm 3 m/s 754 mmHg 66%

    Depois de amanhã, 26 Setembro, Quarta-feira

    Tempo Temperatura Precipitação Vento Pressão Humidade
    00:00 +2°C° 0 mm 3 m/s 755 mmHg 70%
    01:00 +2°C° 0 mm 3 m/s 755 mmHg 75%
    02:00 +2°C° 0 mm 3 m/s 756 mmHg 79%
    03:00 +2°C° 0 mm 3 m/s 756 mmHg 83%
    04:00 +2°C° 0 mm 3 m/s 756 mmHg 87%
    05:00 +2°C° 0 mm 3 m/s 756 mmHg 91%
    06:00 +2°C° 0 mm 3 m/s 756 mmHg 86%
    07:00 +3°C° 0 mm 4 m/s 757 mmHg 81%
    08:00 +4°C° 0 mm 4 m/s 757 mmHg 76%
    09:00 +6°C° 0 mm 5 m/s 756 mmHg 69%
    10:00 +8°C° 0 mm 5 m/s 756 mmHg 63%
    11:00 +10°C° 0 mm 5 m/s 756 mmHg 57%
    12:00 +10°C° 0 mm 6 m/s 755 mmHg 58%
    13:00 +10°C° 0 mm 6 m/s 755 mmHg 58%
    14:00 +11°C° 0 mm 7 m/s 754 mmHg 59%
    15:00 +10°C° 0.3 mm 7 m/s 753 mmHg 64%
    16:00 +9°C° 0.3 mm 7 m/s 753 mmHg 70%
    17:00 +8°C° 0.3 mm 6 m/s 752 mmHg 76%
    18:00 +6°C° 0.5 mm 7 m/s 751 mmHg 78%
    19:00 +6°C° 0.5 mm 7 m/s 751 mmHg 80%
    20:00 +6°C° 0.5 mm 7 m/s 750 mmHg 83%
    21:00 +6°C° 0.4 mm 8 m/s 749 mmHg 84%
    22:00 +6°C° 0.4 mm 8 m/s 748 mmHg 85%
    23:00 +6°C° 0.4 mm 8 m/s 747 mmHg 86%

    27 Setembro, Quinta-feira

    Tempo Temperatura Precipitação Vento Pressão Humidade
    00:00 +6°C° 0.3 mm 8 m/s 747 mmHg 87%
    01:00 +6°C° 0.3 mm 8 m/s 746 mmHg 88%
    02:00 +6°C° 0.3 mm 8 m/s 745 mmHg 88%
    03:00 +6°C° 0.3 mm 8 m/s 745 mmHg 89%
    04:00 +7°C° 0.3 mm 8 m/s 744 mmHg 89%
    05:00 +8°C° 0.3 mm 7 m/s 744 mmHg 90%
    06:00 +9°C° 0.5 mm 7 m/s 744 mmHg 91%
    07:00 +9°C° 0.5 mm 6 m/s 744 mmHg 91%
    08:00 +10°C° 0.5 mm 6 m/s 744 mmHg 92%
    09:00 +10°C° 0.5 mm 5 m/s 744 mmHg 93%
    10:00 +12°C° 0.5 mm 5 m/s 744 mmHg 93%
    11:00 +12°C° 0.5 mm 4 m/s 744 mmHg 94%
    12:00 +12°C° 0.6 mm 4 m/s 744 mmHg 93%
    13:00 +12°C° 0.6 mm 5 m/s 744 mmHg 92%
    14:00 +12°C° 0.6 mm 5 m/s 744 mmHg 91%
    15:00 +12°C° 0.5 mm 4 m/s 744 mmHg 92%
    16:00 +11°C° 0.5 mm 3 m/s 744 mmHg 92%
    17:00 +12°C° 0.5 mm 2 m/s 744 mmHg 93%
    18:00 +11°C° 0.5 mm 3 m/s 744 mmHg 93%
    19:00 +12°C° 0.5 mm 4 m/s 744 mmHg 92%
    20:00 +12°C° 0.5 mm 5 m/s 744 mmHg 91%
    21:00 +12°C° 0 mm 5 m/s 744 mmHg 92%
    22:00 +12°C° 0 mm 5 m/s 744 mmHg 92%
    23:00 +10°C° 0 mm 5 m/s 744 mmHg 93%

    28 Setembro, Sexta-feira

    Tempo Temperatura Precipitação Vento Pressão Humidade
    00:00 +10°C° 0 mm 5 m/s 744 mmHg 92%
    01:00 +10°C° 0 mm 6 m/s 743 mmHg 92%
    02:00 +11°C° 0 mm 6 m/s 743 mmHg 92%
    03:00 +11°C° 0.1 mm 7 m/s 742 mmHg 91%
    04:00 +12°C° 0.1 mm 8 m/s 741 mmHg 89%
    05:00 +12°C° 0.1 mm 8 m/s 741 mmHg 88%
    06:00 +12°C° 0.3 mm 8 m/s 741 mmHg 87%
    07:00 +13°C° 0.3 mm 8 m/s 741 mmHg 86%
    08:00 +13°C° 0.3 mm 8 m/s 741 mmHg 86%
    09:00 +12°C° 0.5 mm 7 m/s 741 mmHg 86%
    10:00 +12°C° 0.5 mm 5 m/s 742 mmHg 87%
    11:00 +11°C° 0.5 mm 4 m/s 742 mmHg 88%
    12:00 +11°C° 0.2 mm 3 m/s 743 mmHg 86%
    13:00 +11°C° 0.2 mm 3 m/s 743 mmHg 84%
    14:00 +12°C° 0.2 mm 2 m/s 743 mmHg 82%
    15:00 +12°C° 0 mm 2 m/s 744 mmHg 82%
    16:00 +12°C° 0 mm 2 m/s 744 mmHg 83%
    17:00 +10°C° 0 mm 2 m/s 744 mmHg 84%
    18:00 +10°C° 0.1 mm 2 m/s 744 mmHg 87%
    19:00 +9°C° 0.1 mm 2 m/s 745 mmHg 89%
    20:00 +9°C° 0.1 mm 2 m/s 745 mmHg 92%
    21:00 +8°C° 0 mm 3 m/s 745 mmHg 92%
    22:00 +8°C° 0 mm 3 m/s 745 mmHg 93%
    23:00 +6°C° 0 mm 4 m/s 746 mmHg 94%

    29 Setembro, Sábado

    Tempo Temperatura Precipitação Vento Pressão Humidade
    00:00 +6°C° 0 mm 4 m/s 746 mmHg 92%
    01:00 +6°C° 0 mm 4 m/s 746 mmHg 89%
    02:00 +6°C° 0 mm 4 m/s 747 mmHg 87%
    03:00 +5°C° 0 mm 4 m/s 747 mmHg 88%
    04:00 +5°C° 0 mm 4 m/s 747 mmHg 88%
    05:00 +4°C° 0 mm 4 m/s 748 mmHg 88%
    06:00 +4°C° 0 mm 4 m/s 748 mmHg 87%
    07:00 +4°C° 0 mm 4 m/s 749 mmHg 86%
    08:00 +4°C° 0 mm 4 m/s 750 mmHg 85%
    09:00 +5°C° 0 mm 4 m/s 750 mmHg 77%
    10:00 +6°C° 0 mm 5 m/s 751 mmHg 69%
    11:00 +7°C° 0 mm 5 m/s 751 mmHg 61%
    12:00 +8°C° 0 mm 5 m/s 752 mmHg 56%
    13:00 +8°C° 0 mm 5 m/s 752 mmHg 52%
    14:00 +9°C° 0 mm 5 m/s 752 mmHg 47%
    15:00 +8°C° 0 mm 4 m/s 752 mmHg 52%
    16:00 +8°C° 0 mm 3 m/s 753 mmHg 57%
    17:00 +8°C° 0 mm 2 m/s 753 mmHg 62%
    18:00 +7°C° 0 mm 2 m/s 753 mmHg 66%
    19:00 +6°C° 0 mm 2 m/s 754 mmHg 71%
    20:00 +5°C° 0 mm 2 m/s 754 mmHg 76%
    21:00 +4°C° 0 mm 2 m/s 754 mmHg 78%
    22:00 +4°C° 0 mm 2 m/s 755 mmHg 80%
    23:00 +4°C° 0 mm 2 m/s 755 mmHg 82%
    Mostrar mais